Location: Iesi
(43.5167°N, 13.2333°E)
Time: 18:58:02
(UTC+00:00)

Cosmos 405 Rocket - Pass Details

Date: 08 August 2020
Orbit: 490 x 553 km, 81.3° (Epoch: 24 September)

Event Time Altitude Azimuth Distance (km) Brightness Sun altitude
Exits shadow 20:48:33 64° 38° (NE) 551 2.8 -22.1°
Drops below altitude 10° 20:51:48 10° 13° (NNE) 1,703 5.8 -22.5°
Sets 20:53:57 0° 12° (NNE) 2,598 6.9 -22.7°
